Flag for U.S.A. Weather past 2 weeks in Santa Clara, California, U.S.A.

Now
46 °F

Passing clouds.


Feels Like: 46 °F
Forecast: 43 / 60 °F
Wind: No wind

Location: San Jose International Airport

Current Time: Mar 1, 2015 at 12:41:56 AM

Latest Report: Feb 28, 2015 at 11:53 PM


Visibility: 10 mi

Pressure: 29.92 "Hg

Humidity: 89%

Dew point: 43 °F

Location of Santa ClaraLocation

Historic Weather in Santa Clara — Graph

°F

Santa Clara temperature yesterday

Maximum temperature yesterday: 58 °F (at 12:53 PM)
Minimum temperature yesterday: 48 °F (at 10:53 PM)
Average temperature yesterday: 52 °F

Past Weeks' High & Low Weather Summary

 TemperatureHumidityPressure
High75 °F (Feb 15, 2:53 PM)94% (Feb 19, 4:03 AM)30.36 "Hg (Feb 19, 4:03 AM)
Low38 °F (Feb 24, 6:53 AM)17% (Feb 24, 1:53 PM)29.74 "Hg (Feb 28, 3:53 AM)
Average56 °F65%30.03 "Hg
* Reported Feb 13 10:53 PM — Feb 28 10:53 PM, Santa Clara, Weather by CustomWeather, © 2015

Note: Actual official high and low records may vary slightly from our data, if they occured in-between our weather recording intervals... More about our weather records

Advertising

Santa Clara weather history for previous 24 hours

 ConditionsComfort  
Time TempWeatherWind HumidityBarometerVisibility
10:53 PM
Sat, Feb 28
48 °FPassing clouds.No wind86%29.91 "Hg10 mi
9:53 PM49 °FPassing clouds.No wind84%29.90 "Hg10 mi
8:53 PM49 °FPassing clouds.No wind84%29.88 "Hg10 mi
7:53 PM49 °FPassing clouds.3 mph86%29.87 "Hg10 mi
6:53 PM50 °FPartly cloudy.5 mph83%29.84 "Hg10 mi
5:53 PM51 °FBroken clouds.No wind74%29.83 "Hg10 mi
4:53 PM50 °FLight rain. Broken clouds.7 mph83%29.82 "Hg10 mi
3:53 PM52 °FBroken clouds.13 mph64%29.82 "Hg10 mi
2:53 PM58 °FPartly sunny.6 mph60%29.78 "Hg10 mi
1:53 PM58 °FPartly sunny.9 mph58%29.78 "Hg10 mi
12:53 PM58 °FBroken clouds.3 mph51%29.78 "Hg10 mi
11:53 AM57 °FBroken clouds.8 mph64%29.80 "Hg10 mi
10:53 AM57 °FBroken clouds.6 mph60%29.80 "Hg10 mi
9:53 AM56 °FBroken clouds.5 mph62%29.80 "Hg10 mi
8:53 AM53 °FScattered clouds.No wind72%29.79 "Hg10 mi
7:53 AM50 °FBroken clouds.3 mph80%29.78 "Hg10 mi
6:53 AM49 °FBroken clouds.3 mph80%29.76 "Hg10 mi
5:53 AM49 °FLight rain. Partly cloudy.3 mph80%29.75 "Hg10 mi
4:53 AM49 °FPassing clouds.3 mph77%29.74 "Hg10 mi
3:53 AM50 °FClear.No wind71%29.74 "Hg10 mi
2:53 AM51 °FMostly cloudy.6 mph74%29.75 "Hg10 mi
1:53 AM50 °FPassing clouds.No wind74%29.76 "Hg10 mi
12:53 AM51 °FClear.3 mph71%29.76 "Hg10 mi
Weather by CustomWeather, © 2015

See weather overviewHow to use our weather pages